Location: Oshawa
(43.9000°N, 78.8670°W)
Time: 21:41:43
(UTC-04:00)

Courier 1B - All Passes

Search period start: 31 July 2014 00:00
Search period end: 10 August 2014 00:00
Orbit: 963 x 1209 km, 28.3° (Epoch: 30 July)

Date Brightness Start Highest point End Pass type
(mag) Time Alt. Az. Time Alt. Az. Time Alt. Az.
31 Jul - 01:28:10 10° WSW 01:33:20 19° SSW 01:38:28 10° SSE visible
31 Jul - 20:48:53 10° SSW 20:53:22 17° SSE 20:57:58 10° SE daylight
31 Jul - 22:40:36 10° SW 22:46:29 24° S 22:52:29 10° SE visible
01 Aug - 00:34:10 10° WSW 00:39:44 22° SSW 00:45:19 10° SE visible
01 Aug - 02:30:49 10° SW 02:32:44 11° SSW 02:34:40 10° SSW night (unlit)
01 Aug - 19:56:27 10° S 19:59:52 14° SSE 20:03:21 10° SE daylight
01 Aug - 21:47:14 10° SW 21:52:52 23° S 21:58:40 10° ESE visible
01 Aug - 23:40:20 10° SW 23:46:06 23° S 23:51:57 10° SE visible
02 Aug - 01:35:28 10° SW 01:39:12 14° SSW 01:42:57 10° S night (unlit)
02 Aug - 19:05:21 10° SSE 19:06:24 10° SSE 19:07:28 10° SE daylight
02 Aug - 20:54:03 10° SSW 20:59:17 21° SSE 21:04:42 10° ESE daylight
02 Aug - 22:46:40 10° SW 22:52:29 24° S 22:58:25 10° SE visible
03 Aug - 00:41:01 10° SW 00:45:39 17° SSW 00:50:18 10° SSE visible
03 Aug - 20:01:04 10° SSW 20:05:45 18° SSE 20:10:35 10° SE daylight
03 Aug - 21:53:08 10° SW 21:58:51 24° S 22:04:46 10° SE visible
03 Aug - 23:46:55 10° WSW 23:52:03 19° SSW 23:57:16 10° SSE visible
04 Aug - 19:08:25 10° SSW 19:12:15 15° SSE 19:16:12 10° SE daylight
04 Aug - 20:59:45 10° SW 21:05:16 23° S 21:10:59 10° SE visible
04 Aug - 22:53:03 10° SW 22:58:27 21° S 23:03:59 10° SE visible
05 Aug - 00:49:07 10° SW 00:51:30 12° SSW 00:53:54 10° S visible
05 Aug - 18:16:21 10° S 18:18:49 12° SSE 18:21:18 10° SE daylight
05 Aug - 20:06:31 10° SW 20:11:42 22° S 20:17:06 10° SE daylight
05 Aug - 21:59:22 10° SW 22:04:51 23° S 22:10:32 10° SE visible
05 Aug - 23:54:11 10° SW 23:57:58 14° SSW 00:01:47 10° S visible
06 Aug - 19:13:28 10° SSW 19:18:11 19° SSE 19:23:05 10° SE daylight
06 Aug - 21:05:49 10° SW 21:11:16 23° S 21:16:56 10° SE visible
06 Aug - 22:59:55 10° SW 23:04:24 17° SSW 23:08:59 10° SSE visible
07 Aug - 18:20:39 10° SSW 18:24:43 17° SSE 18:28:54 10° SE daylight
07 Aug - 20:12:25 10° SW 20:17:43 23° S 20:23:14 10° SE daylight
07 Aug - 22:05:59 10° SW 22:10:50 19° SSW 22:15:51 10° SSE visible
08 Aug - 17:28:12 10° S 17:31:17 13° SSE 17:34:25 10° SE daylight
08 Aug - 19:19:08 10° SW 19:24:11 22° S 19:29:26 10° SE daylight
08 Aug - 21:12:15 10° SW 21:17:17 21° S 21:22:31 10° SE visible
08 Aug - 23:08:02 10° SW 23:10:19 12° SSW 23:12:37 10° S visible
09 Aug - 16:37:00 10° SSE 16:37:53 10° SSE 16:38:47 10° SSE daylight
09 Aug - 18:26:00 10° SW 18:30:41 20° S 18:35:33 10° SE daylight
09 Aug - 20:18:40 10° SW 20:23:44 22° S 20:29:02 10° SE daylight
09 Aug - 22:13:17 10° SW 22:16:48 14° SSW 22:20:23 10° S visible
